C/2022 N1 ( Attard-Maury )

Japanese version
Home page
Updated on November 13, 2022

---------------------------------------------------------------------

* Profile

Discovery Date July 2, 2022
Magnitude 17.2 mag
Discoverer Georges Attard and Alain Maury (San Pedro de Atacama, Chile)

* Pictures

* Orbital Elements

Epoch 2022 Aug. 9.0 TT = JDT 2459800.5
T 2022 Sept. 10.05180 TT                                Rudenko
q   1.4818008            (2000.0)            P               Q
z  +0.0270592      Peri.   41.07286     -0.14046240     -0.96452071
 +/-0.0000211      Node   301.85805     -0.96320783     +0.08086994
e   0.9599037      Incl.  164.74076     -0.22913093     +0.25131625
>From 219 observations 2022 June 29-Aug. 27, mean residual 0".7.

* Finding Charts

* Magnitudes Graph

        m1 = 15.5 + 5 log d + 10.0 log r

---------------------------------------------------------------------

The orbital elements are published on M.P.E.C. 2022-V125.
The charts are made with StellaNavigator Ver.10 (AstroArts).
The magnitudes graphs are made with Comet for Windows.

---------------------------------------------------------------------

Copyright(C) Seiichi Yoshida (comet@aerith.net). All rights reserved.